Date String (YYYY-MM-DD hh:mm:ss) UTC,Instrument flags,Ambient pressure (hPa),Sample flow (lpm),Bypass flow (lpm),Sample temperature (°C),Ambient temperature (°C),ASC tube jacket temperature (°C),LED temperature (°C),Box temperature (°C),Sample RH (%),Span deviation,Mass concentration (μg/m³),Mass concentration (μg/m³),Mass concentration (μg/m³)
DateTimeUTC,F1_M11,P_M11,Q1_M11,Q2_M11,T1_M11,T2_M11,T3_M11,T4_M11,T5_M11,U1_M11,ZSPAN_M11,X0_M11,X2_M11,X1_M11
2022-09-23 03:00:00,,0826.9,5.00,0.00,30.7,29.1,00.0,39.4,32.5,26.5,-003.2,0012.20,0008.31,0007.93
2022-09-23 03:01:00,,0826.8,5.00,0.00,30.7,29.2,00.0,39.4,32.5,26.5,-003.0,0012.24,0008.33,0007.94
2022-09-23 03:02:00,,0826.7,4.99,0.00,30.7,29.2,00.0,39.4,32.5,26.4,-002.9,0012.27,0008.34,0007.95
2022-09-23 03:03:00,,0826.7,5.01,0.00,30.7,29.2,00.0,39.4,32.5,26.4,-002.8,0012.35,0008.41,0008.00
2022-09-23 03:04:00,,0826.7,4.99,0.00,30.7,29.2,00.0,39.4,32.5,26.3,-002.6,0012.42,0008.50,0008.07
2022-09-23 03:05:00,,0826.7,5.02,0.00,30.7,29.2,00.0,39.4,32.5,26.3,-002.3,0012.43,0008.57,0008.15
2022-09-23 03:06:00,,0826.7,4.99,0.00,30.7,29.2,00.0,39.4,32.5,26.3,-002.3,0012.40,0008.61,0008.19
2022-09-23 03:07:00,,0826.8,5.00,0.00,30.7,29.2,00.0,39.4,32.5,26.4,-002.3,0012.13,0008.64,0008.22
2022-09-23 03:08:00,,0826.7,5.00,0.00,30.7,29.1,00.0,39.4,32.5,26.5,-002.3,0011.99,0008.60,0008.21
2022-09-23 03:09:00,,0826.7,5.00,0.00,30.7,29.1,00.0,39.4,32.5,26.6,-002.5,0011.62,0008.54,0008.18
2022-09-23 03:10:00,,0826.8,5.01,0.00,30.7,29.2,00.0,39.4,32.5,26.6,-002.4,0011.34,0008.50,0008.16
2022-09-23 03:11:00,,0826.9,4.99,0.00,30.7,29.2,00.0,39.4,32.5,26.6,-002.3,0011.29,0008.51,0008.18
2022-09-23 03:12:00,,0826.7,5.01,0.00,30.7,29.2,00.0,39.4,32.5,26.6,-002.1,0011.26,0008.55,0008.24
2022-09-23 03:13:00,,0826.7,5.01,0.00,30.7,29.2,00.0,39.4,32.5,26.6,-002.2,0011.29,0008.61,0008.29
2022-09-23 03:14:00,,0826.7,4.99,0.00,30.7,29.2,00.0,39.4,32.5,26.6,-002.4,0012.00,0008.66,0008.32
2022-09-23 03:15:00,,0826.7,5.01,0.00,30.7,29.2,00.0,39.4,32.5,26.5,-002.7,0012.09,0008.67,0008.35
2022-09-23 03:16:00,,0826.7,5.00,0.00,30.7,29.2,00.0,39.4,32.5,26.5,-002.8,0012.03,0008.64,0008.35
2022-09-23 03:17:00,,0826.7,5.01,0.00,30.7,29.0,00.0,39.4,32.4,26.4,-002.9,0012.09,0008.72,0008.42
2022-09-23 03:18:00,,0826.7,5.01,0.00,30.6,29.0,00.0,39.4,32.4,26.3,-002.7,0012.16,0008.82,0008.53
2022-09-23 03:19:00,,0826.7,4.99,0.00,30.6,29.0,00.0,39.4,32.4,26.3,-002.7,0012.37,0008.97,0008.66
2022-09-23 03:20:00,,0826.6,5.01,0.00,30.6,29.0,00.0,39.4,32.4,26.3,-002.8,0012.66,0009.14,0008.79
2022-09-23 03:21:00,,0826.7,5.00,0.00,30.6,29.0,00.0,39.4,32.4,26.3,-002.9,0012.89,0009.30,0008.94
2022-09-23 03:22:00,,0826.8,4.99,0.00,30.6,28.9,00.0,39.4,32.4,26.3,-003.0,0012.98,0009.39,0009.03
2022-09-23 03:23:00,,0826.8,5.01,0.00,30.6,28.9,00.0,39.4,32.4,26.3,-003.0,0013.06,0009.48,0009.12
2022-09-23 03:24:00,,0826.6,4.99,0.00,30.6,28.9,00.0,39.4,32.4,26.3,-003.1,0013.19,0009.61,0009.25
2022-09-23 03:25:00,,0826.7,5.00,0.00,30.6,29.0,00.0,39.4,32.4,26.3,-003.2,0012.70,0009.74,0009.41
2022-09-23 03:26:00,,0826.7,5.01,0.00,30.6,29.0,00.0,39.4,32.4,26.3,-002.9,0012.71,0009.89,0009.55
2022-09-23 03:27:00,,0826.7,4.99,0.00,30.6,29.0,00.0,39.4,32.4,26.3,-002.8,0012.88,0010.02,0009.67
2022-09-23 03:28:00,,0826.7,5.01,0.00,30.6,29.0,00.0,39.4,32.4,26.3,-002.7,0013.03,0010.13,0009.76
2022-09-23 03:29:00,,0826.7,4.99,0.00,30.6,29.0,00.0,39.4,32.4,26.3,-002.7,0013.20,0010.20,0009.82
2022-09-23 03:30:00,,0826.8,5.00,0.00,30.6,29.0,00.0,39.4,32.4,26.3,-002.7,0013.18,0010.23,0009.87
2022-09-23 03:31:00,,0826.8,5.01,0.00,30.6,29.0,00.0,39.4,32.4,26.3,-002.6,0013.06,0010.23,0009.90
2022-09-23 03:32:00,,0826.8,4.98,0.00,30.6,29.0,00.0,39.4,32.3,27.0,-002.6,0013.06,0010.25,0009.91
2022-09-23 03:33:00,,0826.8,5.02,0.00,30.6,29.0,00.0,39.4,32.3,27.2,-002.6,0013.38,0010.29,0009.94
2022-09-23 03:34:00,,0826.7,5.01,0.00,30.6,29.0,00.0,39.4,32.3,26.8,-002.6,0013.75,0010.30,0009.95
2022-09-23 03:35:00,,0826.6,4.98,0.00,30.6,28.9,00.0,39.4,32.3,26.8,-002.6,0013.78,0010.28,0009.93
2022-09-23 03:36:00,,0826.7,5.00,0.00,30.5,28.9,00.0,39.3,32.3,26.8,-002.7,0013.88,0010.29,0009.91
2022-09-23 03:37:00,,0826.7,5.01,0.00,30.5,28.9,00.0,39.3,32.3,26.8,-002.9,0013.92,0010.28,0009.89
2022-09-23 03:38:00,,0826.7,4.99,0.00,30.5,29.0,00.0,39.3,32.3,26.7,-002.9,0013.89,0010.27,0009.89
2022-09-23 03:39:00,,0826.6,5.01,0.00,30.5,29.0,00.0,39.3,32.3,26.6,-003.0,0013.78,0010.20,0009.84
2022-09-23 03:40:00,,0826.5,4.99,0.00,30.5,29.0,00.0,39.3,32.3,26.6,-003.1,0013.63,0010.14,0009.80
2022-09-23 03:41:00,,0826.7,5.00,0.00,30.5,29.0,00.0,39.3,32.3,26.6,-003.3,0013.62,0010.15,0009.80
2022-09-23 03:42:00,,0826.7,5.01,0.00,30.5,28.9,00.0,39.3,32.3,26.5,-003.3,0013.71,0010.21,0009.85
2022-09-23 03:43:00,,0826.7,4.99,0.00,30.5,29.0,00.0,39.3,32.3,26.6,-003.3,0013.82,0010.27,0009.90
2022-09-23 03:44:00,,0826.7,5.01,0.00,30.5,29.0,00.0,39.3,32.3,26.7,-003.3,0013.58,0010.29,0009.94
2022-09-23 03:45:00,,0826.7,5.00,0.00,30.5,29.0,00.0,39.3,32.3,26.7,-003.4,0013.30,0010.34,0009.98
2022-09-23 03:46:00,,0826.7,4.99,0.00,30.5,29.0,00.0,39.3,32.3,26.7,-003.4,0013.32,0010.39,0010.02
2022-09-23 03:47:00,,0826.7,5.00,0.00,30.5,28.9,00.0,39.3,32.3,26.7,-003.2,0013.33,0010.41,0010.04
2022-09-23 03:48:00,,0826.7,5.01,0.00,30.5,28.9,00.0,39.3,32.3,26.6,-003.2,0013.25,0010.43,0010.08
2022-09-23 03:49:00,,0826.6,4.99,0.00,30.5,28.9,00.0,39.3,32.3,26.7,-003.3,0013.27,0010.46,0010.10
2022-09-23 03:50:00,,0826.7,5.00,0.00,30.5,28.9,00.0,39.3,32.3,26.6,-003.4,0013.82,0010.54,0010.17
2022-09-23 03:51:00,,0826.7,5.00,0.00,30.5,28.7,00.0,39.3,32.2,26.5,-003.2,0014.17,0010.62,0010.23
2022-09-23 03:52:00,,0826.7,5.00,0.00,30.5,28.7,00.0,39.3,32.2,26.5,-003.1,0014.26,0010.67,0010.28
2022-09-23 03:53:00,,0826.7,4.98,0.00,30.5,28.7,00.0,39.3,32.2,26.5,-003.0,0014.45,0010.72,0010.30
2022-09-23 03:54:00,,0826.7,5.02,0.00,30.5,28.8,00.0,39.3,32.2,26.5,-003.2,0015.65,0010.72,0010.30
2022-09-23 03:55:00,,0826.7,4.99,0.00,30.5,28.8,00.0,39.3,32.2,26.5,-003.1,0015.97,0010.77,0010.34
2022-09-23 03:56:00,,0826.7,5.00,0.00,30.5,28.8,00.0,39.3,32.2,26.5,-003.1,0016.21,0010.83,0010.38
2022-09-23 03:57:00,,0826.7,5.00,0.00,30.5,28.9,00.0,39.3,32.2,26.5,-002.9,0016.51,0010.89,0010.41
2022-09-23 03:58:00,,0826.6,5.00,0.00,30.5,28.9,00.0,39.3,32.2,26.6,-002.9,0016.53,0010.89,0010.42
2022-09-23 03:59:00,,0826.5,4.99,0.00,30.5,28.8,00.0,39.2,32.2,26.6,-003.0,0016.57,0010.90,0010.42
